Flag for U.S.A. Weather past 2 weeks in Portland, Oregon, U.S.A.

Now
48 °F

Overcast.


Feels Like: 43 °F
Forecast: 42 / 59 °F
Wind: 12 mph from Southeast

Location: Portland International Airport


UV Index: 3 (Moderate)

Visibility: 10 mi


Pressure: 29.85 "Hg

Humidity: 74%

Dew point: 40 °F

Location of PortlandLocation

Historic Weather in Portland

°F

Portland temperature yesterday

Maximum temperature yesterday: 60 °F (at 3:53 PM)
Minimum temperature yesterday: 40 °F (at 4:53 AM)
Average temperature yesterday: 50 °F

Past Weeks' High & Low Weather Summary

 TemperatureHumidityPressure
High74 °F (Apr 7, 5:53 PM)100% (Apr 7, 4:53 AM)30.31 "Hg (Apr 7, 4:53 AM)
Low40 °F (Apr 13, 6:53 AM)21% (Apr 13, 3:53 PM)29.85 "Hg (Apr 17, 4:53 PM)
Average54 °F69%30.12 "Hg
* Reported Apr 4 6:01 AM — Apr 19 6:53 AM, Portland, Weather by CustomWeather, © 2014

Note: Actual official high and low records may vary slightly from our data, if they occured in-between our weather recording intervals... More about our weather records

Advertising

Historic Weather Conditions — Data for Previous 24 hours

 ConditionsComfort  
Time TempWeatherWind HumidityBarometerVisibility
6:53 AM
Apr 19
45 °FPartly cloudy.9 mph82%29.86 "Hg10 mi
5:53 AM44 °FPartly cloudy.5 mph85%29.85 "Hg10 mi
4:53 AM44 °FPassing clouds.3 mph82%29.86 "Hg10 mi
3:53 AM44 °FPassing clouds.6 mph82%29.85 "Hg10 mi
2:53 AM46 °FPassing clouds.3 mph79%29.86 "Hg10 mi
1:53 AM46 °FPassing clouds.No wind79%29.86 "Hg10 mi
12:53 AM47 °FPassing clouds.5 mph77%29.88 "Hg10 mi
11:53 PM
Apr 18
49 °FPassing clouds.No wind74%29.88 "Hg10 mi
10:53 PM48 °FPassing clouds.3 mph80%29.90 "Hg10 mi
9:53 PM52 °FClear.No wind66%29.92 "Hg10 mi
8:53 PM54 °FPassing clouds.7 mph57%29.94 "Hg10 mi
7:53 PM55 °FPartly sunny.6 mph57%29.96 "Hg10 mi
6:53 PM58 °FOvercast.7 mph51%29.98 "Hg10 mi
5:53 PM60 °FOvercast.8 mph46%30.01 "Hg10 mi
4:53 PM59 °FPartly sunny.9 mph44%30.03 "Hg10 mi
3:53 PM60 °FScattered clouds.5 mph36%30.06 "Hg10 mi
2:53 PM58 °FPartly sunny.No wind39%30.09 "Hg10 mi
1:53 PM57 °FBroken clouds.5 mph42%30.12 "Hg10 mi
12:53 PM56 °FPartly sunny.5 mph44%30.16 "Hg10 mi
11:53 AM53 °FBroken clouds.5 mph48%30.17 "Hg10 mi
10:53 AM52 °FBroken clouds.No wind55%30.16 "Hg10 mi
9:53 AM50 °FPartly sunny.No wind74%30.15 "Hg10 mi
8:53 AM47 °FScattered clouds.5 mph83%30.15 "Hg10 mi
Weather by CustomWeather, © 2014

See weather overview